Location: Gajan
(43.0218°N, 1.1244°E)
Time: 15:20:07
(UTC+00:00)

Cosmos 1763 Rocket - Pass Details

Date: 22 April 2021
Orbit: 733 x 779 km, 74.0° (Epoch: 12 May)

Event Time Altitude Azimuth Distance (km) Brightness Sun altitude
Rises 20:56:27 0° 345° (NNW) 3,173 7.6 -21.3°
Reaches altitude 10° 20:58:56 10° 353° (N) 2,245 6.6 -21.6°
Maximum altitude 21:03:45 42° 64° (ENE) 1,041 4.0 -22.2°
Enters shadow 21:04:17 41° 81° (E) 1,064 3.9 -22.3°
